NOAA 16 DEB, 41709

Orbit data source: Space-Track

NOAA 16 DEB, 41709 is space debris in SSO originally from a launch on Thu, 21 Sep 2000 UTC launched from the Air Force Western Test Range (AFWTR). Debris objects in space refer to the collection of defunct objects orbiting the Earth. Examples of debris include non-operational satellites, rocket bodies, and fragments generated from explosions, collisions, or faulty payload assembly.

Loading next visibility...
NOAA 16 DEB details
Identifier
41709, 2000-055PP
Orbit
SSO
Last TLE update9 hours ago
Origin
Flag of USNOAA (US)
ManufacturerUnknown
MissionSpacecraft
Bus & MotorUnknown
MassUnknown
Launch date (UTC)
2000-09-21 (24 years ago)
Launch vehicleUnknown
Launch site
Air Force Western Test Range (AFWTR)
Object type
Payload
Rocket body
Debris
Shape & HBRUnknown
Radar Cross SectionSmall (<0.1 m²)

Expand to show TLE details & history

TLE from 9 hours ago
0 NOAA 16 DEB
1 41709U 00055PP  24361.24184290  .00044800  00000-0  10628-1 0  9991
2 41709  98.9567 165.5860 0023333 259.4430 100.4135 14.53575745455474
Epoch: 2024-12-26T05:48Z
Definitive object data (Epoch: 2024-12-26T05:48:15.226Z)
Latitude-0.00008°
Longitude-16.70148°
Altitude719.975 km
Speed7.494 km/s
True Right ascension11h 02m 20s
True Declination0° 00' 00"
Sunlit
Object was in daylight at TLE epoch
Visualization TLE readout
Latitude63.76702°
Longitude-177.76038°
Altitude738.118 km
Speed7.485 km/s
Apparent Right ascension01h 18m 42s
Apparent Declination16° 12' 57"
Sunlit
Object is in daylight
Visualization observer readout
Local Sidereal Time13:57:26
Azimuth11.123° NNE
Elevation-33.147°
Doppler factor1
Orbital elements
Apogee altitude727.661 km
Perigee altitude694.578 km
Semi-major axis7,089.257 km
Eccentricity0.0023333
Inclination98.9567°
RAAN165.586°
Arg. of periapsis259.443°
True anomaly100.67633°
Mean anomaly100.4135°
Eccentric anomaly100.54493°
Mean motion3.63615 °/min
BSTAR0.010628
Orbital period99.01 mins
Loading maneuver chart data...
Loading historical data...
Loading historical data...
Loading historical data...
Loading historical data...
Loading historical data...
Loading historical data...
Loading historical data...

NOAA 16 DEB Visibility forecast

Observer location: undefined°, undefined

Span
Click to sort rows by Start time (UTC) header in descending order
Start Az.
Max El. time (UTC)
Max El. Az.
Max El.
End time (UTC)
End Az.
4 mins2024-12-26 22:56:34.362Z65.003° ENE2024-12-26 22:58:34.362Z92.931° ESE15.776°2024-12-26 23:00:34.362Z120.941° SE
7 mins2024-12-27 00:33:34.362Z356.928° N2024-12-27 00:36:34.362Z295.69° NW37.875°2024-12-27 00:40:34.362Z216.507° SW
5 mins2024-12-27 10:03:34.362Z96.638° ESE2024-12-27 10:05:34.362Z65.699° ENE19.55°2024-12-27 10:08:34.362Z22.737° NE
7 mins2024-12-27 11:40:34.362Z201.097° SSW2024-12-27 11:43:34.362Z273.148° WNW34.101°2024-12-27 11:47:34.362Z331.184° NNW
|